Simultaneous Nadir Overpasses (SNOs) Predictions

Prediction of SNOs between GOES-15 and LANDSAT-8 Satellite Orbit:

Table of predicted SNOs for the next 14.0 days since TLE Epoch: 11/12/2022
Index Date Time (GOES-15) GOES-15 Lat,Lon LANDSAT-8 Lat,Lon Distance(km) Time Diff (sec)
1 11/12/2022 06:28:14 0.23,-128.34 1.08,-124.33 456.38 80
2 11/12/2022 18:49:29 -0.22,-128.33 0.03,-129.48 131.53 80
3 11/14/2022 18:39:56 -0.21,-128.29 -0.59,-126.52 201.94 80
4 11/15/2022 07:01:20 0.20,-128.30 -0.50,-131.71 387.12 80
5 11/17/2022 06:49:06 0.20,-128.27 0.07,-128.74 54.12 80
6 11/19/2022 06:34:13 0.20,-128.23 0.72,-125.77 278.76 80
7 11/19/2022 18:55:28 -0.19,-128.19 0.38,-130.93 310.64 80
8 11/21/2022 18:45:54 -0.19,-128.15 -0.22,-127.96 21.81 80
9 11/23/2022 18:33:40 -0.19,-128.10 -0.84,-124.99 353.45 80
10 11/24/2022 06:55:04 0.18,-128.11 -0.23,-130.18 235.03 80
